• In Moldova, Republic
  • List of Countries
  • For 7 days
  • Water Temperature
  • Satellite Maps
  • Weather Map
  • Weather Widgets
  • user-avatar
    Login

    Hourly Weather Batina

    Today, 23 April, Monday

    Time Temperature Precipitation Wind Pressure Humidity
    00:00 +16°C° 0 mm 1 mps 672 mmHg 58%
    01:00 +16°C° 0 mm 1 mps 672 mmHg 57%
    02:00 +16°C° 0 mm 1 mps 671 mmHg 55%
    03:00 +16°C° 0 mm 1 mps 671 mmHg 54%
    04:00 +16°C° 0 mm 1 mps 671 mmHg 52%
    05:00 +18°C° 0 mm 1 mps 672 mmHg 50%
    06:00 +18°C° 0 mm 1 mps 672 mmHg 48%
    07:00 +19°C° 0 mm 2 mps 672 mmHg 42%
    08:00 +21°C° 0 mm 2 mps 673 mmHg 35%
    09:00 +25°C° 0 mm 3 mps 674 mmHg 28%
    10:00 +25°C° 0 mm 3 mps 674 mmHg 26%
    11:00 +26°C° 0 mm 3 mps 674 mmHg 24%
    12:00 +27°C° 0 mm 3 mps 674 mmHg 22%
    13:00 +27°C° 0 mm 3 mps 674 mmHg 22%
    14:00 +27°C° 0 mm 3 mps 673 mmHg 21%
    15:00 +28°C° 0 mm 3 mps 673 mmHg 21%
    16:00 +26°C° 0 mm 3 mps 673 mmHg 26%
    17:00 +25°C° 0 mm 2 mps 672 mmHg 31%
    18:00 +24°C° 0 mm 2 mps 672 mmHg 35%
    19:00 +23°C° 0 mm 2 mps 672 mmHg 39%
    20:00 +22°C° 0 mm 1 mps 672 mmHg 43%
    21:00 +21°C° 0 mm 1 mps 672 mmHg 47%
    22:00 +20°C° 0 mm 1 mps 672 mmHg 47%
    23:00 +20°C° 0 mm 1 mps 672 mmHg 47%

    Tomorrow, 24 April, Tuesday

    Time Temperature Precipitation Wind Pressure Humidity
    00:00 +19°C° 0 mm 1 mps 672 mmHg 47%
    01:00 +19°C° 0 mm 1 mps 672 mmHg 47%
    02:00 +18°C° 0 mm 1 mps 672 mmHg 47%
    03:00 +17°C° 0 mm 2 mps 671 mmHg 48%
    04:00 +17°C° 0 mm 2 mps 672 mmHg 47%
    05:00 +18°C° 0 mm 2 mps 672 mmHg 47%
    06:00 +18°C° 0 mm 2 mps 672 mmHg 47%
    07:00 +20°C° 0 mm 2 mps 673 mmHg 41%
    08:00 +23°C° 0 mm 2 mps 674 mmHg 34%
    09:00 +25°C° 0 mm 3 mps 674 mmHg 28%
    10:00 +26°C° 0 mm 4 mps 675 mmHg 26%
    11:00 +27°C° 0 mm 5 mps 675 mmHg 23%
    12:00 +28°C° 0 mm 6 mps 675 mmHg 21%
    13:00 +28°C° 0 mm 6 mps 674 mmHg 21%
    14:00 +28°C° 0 mm 6 mps 674 mmHg 21%
    15:00 +28°C° 0 mm 6 mps 673 mmHg 21%
    16:00 +26°C° 0 mm 5 mps 673 mmHg 24%
    17:00 +25°C° 0 mm 5 mps 672 mmHg 27%
    18:00 +23°C° 0 mm 4 mps 672 mmHg 30%
    19:00 +22°C° 0 mm 3 mps 672 mmHg 33%
    20:00 +21°C° 0 mm 2 mps 671 mmHg 35%
    21:00 +20°C° 0 mm 2 mps 671 mmHg 38%
    22:00 +19°C° 0 mm 2 mps 671 mmHg 38%
    23:00 +19°C° 0 mm 2 mps 671 mmHg 37%

    Day after tomorrow, 25 April, Wednesday

    Time Temperature Precipitation Wind Pressure Humidity
    00:00 +19°C° 0 mm 2 mps 671 mmHg 37%
    01:00 +19°C° 0 mm 2 mps 671 mmHg 37%
    02:00 +19°C° 0 mm 2 mps 670 mmHg 36%
    03:00 +19°C° 0 mm 2 mps 670 mmHg 36%
    04:00 +19°C° 0 mm 2 mps 670 mmHg 37%
    05:00 +19°C° 0 mm 2 mps 670 mmHg 39%
    06:00 +19°C° 0 mm 2 mps 670 mmHg 40%
    07:00 +21°C° 0 mm 3 mps 671 mmHg 35%
    08:00 +22°C° 0 mm 4 mps 672 mmHg 31%
    09:00 +25°C° 0 mm 4 mps 672 mmHg 26%
    10:00 +26°C° 0.1 mm 4 mps 672 mmHg 26%
    11:00 +26°C° 0.1 mm 4 mps 672 mmHg 26%
    12:00 +27°C° 0.1 mm 4 mps 672 mmHg 26%
    13:00 +27°C° 0.1 mm 4 mps 671 mmHg 27%
    14:00 +27°C° 0.1 mm 4 mps 671 mmHg 28%
    15:00 +27°C° 0.1 mm 4 mps 670 mmHg 29%
    16:00 +26°C° 0.1 mm 4 mps 670 mmHg 32%
    17:00 +25°C° 0.1 mm 5 mps 669 mmHg 36%
    18:00 +23°C° 0.1 mm 5 mps 669 mmHg 39%
    19:00 +22°C° 0.1 mm 5 mps 668 mmHg 42%
    20:00 +21°C° 0.1 mm 5 mps 668 mmHg 45%
    21:00 +19°C° 0.1 mm 5 mps 668 mmHg 48%
    22:00 +19°C° 0.3 mm 5 mps 668 mmHg 50%
    23:00 +17°C° 0.3 mm 5 mps 667 mmHg 52%

    26 April, Thursday

    Time Temperature Precipitation Wind Pressure Humidity
    00:00 +17°C° 0.3 mm 5 mps 666 mmHg 55%
    01:00 +17°C° 0.1 mm 4 mps 666 mmHg 56%
    02:00 +15°C° 0.1 mm 4 mps 666 mmHg 56%
    03:00 +15°C° 0.1 mm 4 mps 665 mmHg 57%
    04:00 +15°C° 0 mm 4 mps 665 mmHg 59%
    05:00 +16°C° 0 mm 3 mps 665 mmHg 60%
    06:00 +16°C° 0 mm 3 mps 664 mmHg 61%
    07:00 +18°C° 0 mm 4 mps 665 mmHg 54%
    08:00 +19°C° 0 mm 4 mps 665 mmHg 46%
    09:00 +21°C° 0 mm 5 mps 665 mmHg 39%
    10:00 +23°C° 0 mm 5 mps 665 mmHg 35%
    11:00 +25°C° 0 mm 5 mps 665 mmHg 30%
    12:00 +26°C° 0 mm 6 mps 665 mmHg 26%
    13:00 +26°C° 0.5 mm 6 mps 665 mmHg 27%
    14:00 +25°C° 0.5 mm 5 mps 664 mmHg 29%
    15:00 +25°C° 0.5 mm 5 mps 664 mmHg 30%
    16:00 +23°C° 0.6 mm 5 mps 664 mmHg 37%
    17:00 +21°C° 0.6 mm 5 mps 664 mmHg 43%
    18:00 +20°C° 0.6 mm 5 mps 663 mmHg 50%
    19:00 +17°C° 1.2 mm 5 mps 664 mmHg 58%
    20:00 +16°C° 1.2 mm 5 mps 664 mmHg 67%
    21:00 +15°C° 1.2 mm 5 mps 664 mmHg 76%
    22:00 +14°C° 0.1 mm 5 mps 664 mmHg 77%
    23:00 +14°C° 0.1 mm 4 mps 664 mmHg 79%

    27 April, Friday

    Time Temperature Precipitation Wind Pressure Humidity
    00:00 +14°C° 0.1 mm 4 mps 663 mmHg 80%
    01:00 +14°C° 0.1 mm 4 mps 663 mmHg 80%
    02:00 +13°C° 0.1 mm 4 mps 663 mmHg 80%
    03:00 +13°C° 0.1 mm 4 mps 663 mmHg 80%
    04:00 +13°C° 0.1 mm 5 mps 663 mmHg 79%
    05:00 +13°C° 0.1 mm 5 mps 664 mmHg 79%
    06:00 +13°C° 0.1 mm 5 mps 664 mmHg 78%
    07:00 +13°C° 0 mm 5 mps 664 mmHg 74%
    08:00 +14°C° 0 mm 5 mps 665 mmHg 70%
    09:00 +15°C° 0 mm 5 mps 666 mmHg 66%
    10:00 +16°C° 0 mm 5 mps 666 mmHg 61%
    11:00 +17°C° 0 mm 5 mps 666 mmHg 56%
    12:00 +19°C° 0 mm 5 mps 666 mmHg 52%
    13:00 +19°C° 0 mm 6 mps 666 mmHg 50%
    14:00 +19°C° 0 mm 6 mps 666 mmHg 49%
    15:00 +20°C° 0 mm 7 mps 666 mmHg 47%
    16:00 +19°C° 0 mm 6 mps 666 mmHg 51%
    17:00 +16°C° 0 mm 5 mps 666 mmHg 56%
    18:00 +15°C° 0 mm 5 mps 666 mmHg 60%
    19:00 +14°C° 0 mm 4 mps 666 mmHg 63%
    20:00 +13°C° 0 mm 3 mps 667 mmHg 66%
    21:00 +13°C° 0 mm 3 mps 667 mmHg 69%
    22:00 +13°C° 0 mm 2 mps 667 mmHg 69%
    23:00 +13°C° 0 mm 2 mps 667 mmHg 69%

    28 April, Saturday

    Time Temperature Precipitation Wind Pressure Humidity
    00:00 +12°C° 0 mm 1 mps 666 mmHg 70%
    01:00 +12°C° 0 mm 1 mps 666 mmHg 69%
    02:00 +12°C° 0 mm 1 mps 666 mmHg 69%
    03:00 +12°C° 0 mm 1 mps 666 mmHg 68%
    04:00 +12°C° 0 mm 1 mps 666 mmHg 64%
    05:00 +13°C° 0 mm 1 mps 667 mmHg 60%
    06:00 +14°C° 0 mm 1 mps 667 mmHg 56%
    07:00 +15°C° 0 mm 1 mps 668 mmHg 52%
    08:00 +18°C° 0 mm 1 mps 668 mmHg 47%
    09:00 +18°C° 0 mm 2 mps 669 mmHg 42%
    10:00 +19°C° 0 mm 2 mps 669 mmHg 40%
    11:00 +20°C° 0 mm 2 mps 669 mmHg 37%
    12:00 +21°C° 0 mm 3 mps 669 mmHg 35%
    13:00 +22°C° 0 mm 3 mps 668 mmHg 34%
    14:00 +22°C° 0 mm 3 mps 668 mmHg 34%
    15:00 +22°C° 0 mm 4 mps 668 mmHg 33%
    16:00 +21°C° 0.1 mm 4 mps 668 mmHg 37%
    17:00 +20°C° 0.1 mm 3 mps 668 mmHg 41%
    18:00 +20°C° 0.1 mm 3 mps 668 mmHg 45%
    19:00 +18°C° 0.1 mm 3 mps 668 mmHg 51%
    20:00 +17°C° 0.1 mm 2 mps 668 mmHg 57%
    21:00 +16°C° 0.1 mm 1 mps 668 mmHg 62%
    22:00 +16°C° 0 mm 1 mps 668 mmHg 64%
    23:00 +16°C° 0 mm 1 mps 668 mmHg 66%
    Show more